Location: Molveno
(46.1500°N, 10.9667°E)
Time: 00:20:56
(UTC+00:00)

Gblst 52 Del rocket - Pass Details

Date: 05 July 2020
Orbit: 805 x 1366 km, 51.5° (Epoch: 11 August)

Event Time Altitude Azimuth Distance (km) Brightness Sun altitude
Rises 21:07:19 0° 296° (WNW) 3,356 8.3 -14.8°
Reaches altitude 10° 21:09:42 10° 297° (WNW) 2,455 7.5 -15.0°
Maximum altitude 21:15:26 85° 26° (NNE) 906 4.3 -15.5°
Enters shadow 21:20:34 16° 115° (ESE) 2,270 6.0 -16.0°
